Weather reports worldwide

Advertisment
Freiburg, Germany (10803): temperature & dewpoint: 20.09.2018 17:00:00 - 26.09.2018 17:00:00 (CEST)Freiburg, Germany (10803): temperature 5cm & temperature -5cm: 20.09.2018 17:00:00 - 26.09.2018 17:00:00 (CEST)Freiburg, Germany (10803): temperature -20cm & temperature -100cm: 20.09.2018 17:00:00 - 26.09.2018 17:00:00 (CEST)Freiburg, Germany (10803): wind speed & gusts: 20.09.2018 17:00:00 - 26.09.2018 17:00:00 (CEST)Freiburg, Germany (10803): wind direction: 20.09.2018 17:00:00 - 26.09.2018 17:00:00 (CEST)Freiburg, Germany (10803): reduced air pressure: 20.09.2018 17:00:00 - 26.09.2018 17:00:00 (CEST)Freiburg, Germany (10803): visibility: 20.09.2018 17:00:00 - 26.09.2018 17:00:00 (CEST)Freiburg, Germany (10803): sunshine duration: 20.09.2018 17:00:00 - 26.09.2018 17:00:00 (CEST)Freiburg, Germany (10803): precipitation: 20.09.2018 17:00:00 - 26.09.2018 17:00:00 (CEST)
Date & Time tt [°C] td [°C] tt 5cm [°C] tt -5cm [°C] tt -20cm [°C] tt -100cm [°C] ff [km/h] ff [kn] fx [km/h] fx [kn] dd ppp [hPa] vv [km] sd [min] rr [mm]
26.09.2018 17:00:00 19,3 5,2 23,7 20,8 15,7 18,2 8 4 14 8 NW 1032,4 70 60 0,0
26.09.2018 16:00:00 18,9 3,9 24,8 22,3 15,1 18,2 6 4 13 7 NNE 1032,9 62 60 0,0
26.09.2018 15:00:00 17,6 2,7 21,8 23,0 14,3 18,2 5 3 13 7 SE 1033,6 69 60 0,0
26.09.2018 14:00:00 16,1 1,9 22,9 22,4 13,4 18,2 6 3 12 6 NNW 1034,2 53 60 0,0
26.09.2018 13:00:00 14,6 2,3 19,8 20,7 12,6 18,2 8 5 19 10 W 1034,9 51 60 0,0
26.09.2018 12:00:00 13,2 3,2 18,5 18,2 11,9 18,2 8 4 16 9 W 1035,4 39 60 0,0
26.09.2018 11:00:00 11,2 2,6 15,4 15,2 11,4 18,3 8 5 16 9 SW 1035,9 56 60 0,0
26.09.2018 10:00:00 10,3 2,5 12,9 12,0 11,2 18,3 2 1 8 4 S 1035,7 53 60 0,0
26.09.2018 09:00:00 6,0 2,0 9,4 7,6 11,3 18,3 2 1 5 3 NNW 1035,8 42 54 0,0
26.09.2018 08:00:00 1,8 0,5 -0,7 4,4 11,6 18,3 3 1 6 3 SSW 1035,7 41 0 0,0
26.09.2018 07:00:00 1,6 0,5 -1,0 4,7 12,0 18,3 2 1 5 3 NW 1035,1 55 0 0,0
26.09.2018 06:00:00 3,3 1,7 0,2 5,2 12,3 18,4 5 3 10 5 NNW 1035,0 61 0 0,0
26.09.2018 05:00:00 5,5 1,5 0,2 5,8 12,6 18,4 4 2 9 5 S 1034,3 70 0 0,0
26.09.2018 04:00:00 5,1 1,1 0,9 6,5 12,9 18,4 7 4 13 7 WSW 1034,7 70 0 0,0
26.09.2018 03:00:00 9,5 0,4 4,8 7,2 13,2 18,4 5 3 23 12 SSE 1034,7 70 0 0,0
26.09.2018 02:00:00 10,8 0,2 8,7 7,8 13,5 18,4 16 9 33 18 ESE 1034,6 70 0 0,0
26.09.2018 01:00:00 11,2 0,1 9,0 8,0 13,9 18,4 15 8 24 13 E 1035,2 70 0 0,0
26.09.2018 00:00:00 11,7 0,0 9,1 8,4 14,2 18,5 11 6 28 15 E 1035,2 70 0 0,0
25.09.2018 23:00:00 11,9 -0,2 9,5 8,9 14,6 18,5 14 7 28 15 E 1035,6 70 0 0,0
25.09.2018 22:00:00 12,8 -0,4 10,4 9,5 15,0 18,5 14 7 31 17 E 1035,3 70 0 0,0
25.09.2018 21:00:00 13,5 -0,4 10,1 10,4 15,4 18,5 10 6 20 11 ENE 1034,8 70 0 0,0
25.09.2018 20:00:00 14,9 -0,8 12,3 11,5 15,7 18,5 10 5 27 15 E 1034,2 70 0 0,0
25.09.2018 19:00:00 16,1 -0,3 14,9 13,4 15,9 18,5 9 5 26 14 ENE 1033,9 70 39 0,0
25.09.2018 18:00:00 17,2 -0,4 18,0 15,7 15,9 18,5 12 6 28 15 E 1033,5 48 60 0,0
25.09.2018 17:00:00 18,0 1,1 20,7 18,0 15,7 18,6 9 5 25 14 NNE 1033,9 70 60 0,0
25.09.2018 16:00:00 17,7 1,3 20,6 19,1 15,2 18,6 11 6 27 15 ENE 1034,1 50 60 0,0
25.09.2018 15:00:00 17,5 0,8 22,0 20,4 14,6 18,6 11 6 24 13 NNE 1034,5 50 60 0,0
25.09.2018 14:00:00 15,9 1,5 19,7 19,7 13,9 18,6 11 6 23 12 NE 1035,1 70 57 0,0
25.09.2018 13:00:00 15,6 1,9 21,3 19,5 13,2 18,6 10 6 24 13 E 1035,3 50 60 0,0
25.09.2018 12:00:00 14,2 2,8 19,8 18,0 12,5 18,6 9 5 20 11 NNE 1035,9 62 60 0,0
25.09.2018 11:00:00 12,6 4,5 17,4 15,4 12,0 18,6 8 4 18 10 NNW 1035,9 46 60 0,0
25.09.2018 10:00:00 10,0 4,8 12,0 12,2 11,8 18,7 4 2 10 6 NNW 1036,4 57 60 0,0
25.09.2018 09:00:00 6,8 4,7 8,6 7,9 11,9 18,7 5 3 9 5 W 1036,7 36 45 0,0
25.09.2018 08:00:00 3,3 2,6 0,9 5,1 12,1 18,7 4 2 9 5 N 1036,6 19 0 0,0
25.09.2018 07:00:00 3,4 2,8 -0,4 5,1 12,5 18,7 3 1 8 4 N 1036,3 26 0 0,0
25.09.2018 06:00:00 3,5 2,7 0,2 5,3 12,8 18,7 3 2 8 5 E 1036,5 27 0 0,0
25.09.2018 05:00:00 2,6 1,7 0,1 5,7 13,1 18,7 2 1 8 4 ENE 1036,9 16 0 0,0
25.09.2018 04:00:00 3,4 2,7 1,0 6,1 13,5 18,7 2 1 6 3 SSW 1036,8 21 0 0,0
25.09.2018 03:00:00 4,0 3,1 0,8 6,6 13,9 18,7 4 2 8 4 N 1036,7 23 0 0,0
25.09.2018 02:00:00 4,4 3,3 1,4 7,0 14,3 18,7 3 2 7 4 NNE 1036,7 42 0 0,0
25.09.2018 01:00:00 5,3 3,7 1,3 7,6 14,7 18,8 3 1 10 5 N 1036,4 63 0 0,0
25.09.2018 00:00:00 5,1 3,6 1,8 8,2 15,1 18,8 4 2 7 4 NNW 1036,3 70 0 0,0
24.09.2018 23:00:00 6,5 4,3 3,1 8,9 15,5 18,8 4 2 6 4 N 1035,8 70 0 0,0
24.09.2018 22:00:00 6,9 4,4 3,7 9,8 16,0 18,8 3 2 8 5 NE 1035,6 70 0 0,0
24.09.2018 21:00:00 9,2 4,2 5,8 10,7 16,4 18,8 5 3 9 5 NNE 1034,9 70 0 0,0
24.09.2018 20:00:00 12,1 2,7 7,7 11,8 16,8 18,8 5 3 16 8 NE 1034,2 70 0 0,0
24.09.2018 19:00:00 13,7 2,2 12,6 13,2 17,1 18,8 10 5 27 15 N 1033,4 70 41 0,0
24.09.2018 18:00:00 14,8 1,3 16,1 15,2 17,2 18,8 16 9 33 18 N 1032,9 69 60 0,0
24.09.2018 17:00:00 15,5 2,6 18,7 17,5 17,2 18,8 14 8 26 14 NNW 1032,8 48 60 0,0
24.09.2018 16:00:00 15,3 1,5 19,5 19,2 16,9 18,8 15 8 28 15 N 1032,7 48 60 0,0
24.09.2018 15:00:00 15,2 2,7 19,4 20,1 16,5 18,8 14 8 26 14 N 1033,1 42 60 0,0
24.09.2018 14:00:00 14,4 2,8 18,5 20,0 16,0 18,9 16 9 26 14 N 1033,5 35 58 0,0
24.09.2018 13:00:00 13,8 3,0 19,2 18,6 15,7 18,9 13 7 21 12 N 1033,9 67 42 0,0
24.09.2018 12:00:00 12,1 5,0 14,3 16,6 15,3 18,9 10 5 15 8 NNW 1034,3 70 30 0,0
24.09.2018 11:00:00 12,1 6,2 16,4 16,8 15,0 18,9 8 5 15 8 E 1034,0 59 49 0,0
24.09.2018 10:00:00 10,4 6,2 14,5 13,9 15,0 18,9 10 5 18 10 N 1033,4 45 60 0,0
24.09.2018 09:00:00 9,5 6,5 11,5 10,8 15,3 18,9 7 4 11 6 NNE 1032,6 53 46 0,0
24.09.2018 08:00:00 7,0 6,4 5,1 9,7 15,6 18,9 4 2 6 3 N 1032,2 29 0 0,0
24.09.2018 07:00:00 7,9 6,8 7,7 10,4 16,0 18,9 5 3 9 5 NNW 1031,2 38 0 0,0
24.09.2018 06:00:00 8,1 6,8 6,6 10,6 16,3 18,9 4 2 9 5 NE 1029,8 41 0 0,0
24.09.2018 05:00:00 8,8 6,8 8,2 11,8 16,7 18,9 4 2 28 15 N 1028,7 63 0 0,1
24.09.2018 04:00:00 10,2 7,1 10,0 12,4 17,0 18,9 12 6 22 12 N 1028,0 70 0 0,0
24.09.2018 03:00:00 10,6 8,4 10,5 13,0 17,3 18,9 6 3 27 14 N 1027,5 70 0 0,0
24.09.2018 02:00:00 11,6 7,9 11,2 13,3 17,6 19,0 10 5 22 12 N 1026,1 70 0 0,0
24.09.2018 01:00:00 12,2 8,4 10,9 13,9 17,9 19,0 11 6 24 13 N 1024,4 70 0 0,0
24.09.2018 00:00:00 12,8 10,2 12,2 14,8 18,2 19,0 7 4 16 9 N 1022,8 70 0 0,0
23.09.2018 23:00:00 13,3 10,9 12,7 15,4 18,5 19,0 5 3 35 19 N 1021,4 70 0 0,0
23.09.2018 22:00:00 14,9 12,8 14,4 16,6 18,8 19,0 6 4 39 21 N 1018,8 70 0 1,2
23.09.2018 21:00:00 15,5 14,3 15,2 17,4 19,1 19,0 10 5 56 31 WSW 1016,6 20 0 13,5
23.09.2018 20:00:00 18,4 14,0 17,3 20,2 19,0 19,0 43 23 83 45 W 1012,4 7 0 0,0
23.09.2018 19:00:00 24,5 15,1 23,8 20,7 18,9 19,0 40 22 66 36 SW 1009,6 70 6 0,0
23.09.2018 18:00:00 24,3 15,3 24,3 20,9 18,8 19,0 39 21 67 36 SW 1010,4 57 3 0,0
23.09.2018 17:00:00 23,9 15,6 23,4 21,0 18,6 19,0 39 21 62 33 SW 1012,0 70 6 0,0
23.09.2018 16:00:00 23,6 16,2 23,6 21,0 18,3 19,0 36 19 57 31 SW 1012,5 70 1 0,0
23.09.2018 15:00:00 23,4 16,5 24,0 21,1 18,0 19,1 29 16 61 33 WSW 1013,4 70 0 0,0
23.09.2018 14:00:00 23,1 16,4 23,8 21,5 17,6 19,1 32 17 58 31 SW 1014,5 45 18 0,0
23.09.2018 13:00:00 22,1 16,1 23,2 20,1 17,3 19,1 41 22 61 33 SW 1015,5 42 8 0,0
23.09.2018 12:00:00 20,5 15,4 20,5 17,8 17,2 19,1 21 11 50 27 SW 1016,3 70 0 0,0
23.09.2018 11:00:00 19,8 15,0 19,6 17,5 17,1 19,1 30 16 45 25 SW 1017,0 70 0 0,0
23.09.2018 10:00:00 19,8 14,4 19,0 16,9 17,0 19,1 21 11 40 22 SW 1017,0 70 1 0,0
23.09.2018 09:00:00 18,4 14,3 16,1 16,0 16,9 19,1 23 13 42 23 SSW 1017,0 70 0 0,6
23.09.2018 08:00:00 19,4 12,7 18,4 15,4 16,9 19,1 25 14 40 22 SSW 1016,8 70 0 0,0
23.09.2018 07:00:00 18,6 11,5 17,5 14,9 17,0 19,1 20 11 49 26 SW 1016,8 70 0 0,0
23.09.2018 06:00:00 18,4 10,1 17,4 14,7 17,1 19,1 24 13 45 24 SW 1017,6 70 0 0,0
23.09.2018 05:00:00 19,1 9,0 17,7 14,7 17,2 19,1 29 16 47 25 SW 1018,0 70 0 0,0
23.09.2018 04:00:00 18,1 9,8 15,3 14,7 17,3 19,1 12 7 37 20 WSW 1018,1 70 0 0,1
23.09.2018 03:00:00 16,0 10,5 15,0 14,6 17,5 19,2 10 5 24 13 S 1019,0 70 0 0,1
23.09.2018 02:00:00 15,6 9,5 13,7 14,3 17,6 19,2 16 9 22 12 S 1020,2 56 0 0,0
23.09.2018 01:00:00 15,5 9,0 14,5 14,3 17,9 19,2 16 9 32 18 SSW 1021,1 70 0 0,1
23.09.2018 00:00:00 16,5 8,0 15,4 14,9 18,1 19,2 14 7 24 13 SSW 1020,5 70 0 0,0
22.09.2018 23:00:00 15,2 9,7 13,1 15,4 18,3 19,2 6 4 14 8 SW 1021,5 48 0 0,1
22.09.2018 22:00:00 14,8 10,9 13,4 15,8 18,5 19,2 2 1 8 4 S 1021,2 54 0 0,1
22.09.2018 21:00:00 16,9 6,4 15,4 16,0 18,7 19,2 4 2 15 8 NE 1020,7 70 0 0,0
22.09.2018 20:00:00 17,9 6,2 16,8 16,5 18,9 19,2 10 6 16 9 SW 1020,3 70 0 0,0
22.09.2018 19:00:00 18,7 4,4 17,7 17,5 19,1 19,2 11 6 23 12 SW 1020,3 70 0 0,0
22.09.2018 18:00:00 19,2 2,8 19,2 19,6 19,0 19,2 14 8 21 12 SW 1020,6 70 2 0,0
22.09.2018 17:00:00 19,2 2,5 20,4 21,2 18,8 19,2 10 6 25 13 SW 1021,0 70 36 0,0
22.09.2018 16:00:00 19,4 6,1 22,3 23,5 18,4 19,2 7 4 26 14 SSW 1021,6 65 58 0,0
22.09.2018 15:00:00 18,0 6,6 21,5 23,1 17,8 19,2 11 6 21 12 SW 1022,6 64 58 0,0
22.09.2018 14:00:00 17,5 6,7 22,1 22,7 17,2 19,2 16 8 22 12 WSW 1023,2 60 49 0,0
22.09.2018 13:00:00 16,2 8,4 21,2 21,2 16,7 19,2 6 3 11 6 WSW 1024,0 62 30 0,0
22.09.2018 12:00:00 15,3 9,4 18,3 19,1 16,3 19,2 4 2 12 7 SSW 1024,7 55 15 0,0
22.09.2018 11:00:00 14,0 9,6 16,1 16,6 16,1 19,2 8 4 13 7 S 1025,3 53 7 0,0
22.09.2018 10:00:00 13,1 8,7 14,0 14,7 16,1 19,2 3 2 9 5 S 1025,3 62 5 0,0
22.09.2018 09:00:00 10,9 8,7 10,8 12,2 16,2 19,2 0 0 11 6 N 1025,5 47 14 0,0
22.09.2018 08:00:00 9,3 8,0 8,0 10,7 16,5 19,2 5 3 13 7 N 1025,1 43 0 0,0
22.09.2018 07:00:00 8,5 7,4 6,8 10,8 16,8 19,2 5 3 9 5 S 1024,7 32 0 0,0
22.09.2018 06:00:00 8,9 8,3 7,5 11,3 17,1 19,2 3 1 9 5 N 1025,2 31 0 0,0
22.09.2018 05:00:00 11,4 8,7 9,6 12,0 17,3 19,2 8 4 13 7 S 1024,2 58 0 0,0
22.09.2018 04:00:00 11,7 8,9 10,1 12,5 17,6 19,2 7 4 15 8 S 1024,7 59 0 0,0
22.09.2018 03:00:00 12,0 9,0 10,3 12,6 17,9 19,2 10 6 14 8 S 1023,9 66 0 0,0
22.09.2018 02:00:00 12,1 9,3 10,4 12,8 18,2 19,2 10 5 15 8 S 1023,9 58 0 0,0
22.09.2018 01:00:00 12,6 9,2 10,7 13,0 18,6 19,2 12 7 18 10 SSW 1023,4 58 0 0,0
22.09.2018 00:00:00 12,5 9,8 10,9 13,3 19,0 19,2 11 6 21 11 SSW 1022,8 53 0 0,0
21.09.2018 23:00:00 12,4 10,5 11,2 13,7 19,4 19,2 14 8 22 12 SSW 1022,4 45 0 0,0
21.09.2018 22:00:00 12,4 10,7 11,2 14,1 19,9 19,2 12 6 18 10 SW 1022,0 58 0 0,0
21.09.2018 21:00:00 12,1 10,7 10,6 15,3 20,4 19,2 4 2 13 7 SE 1020,9 66 0 0,0
21.09.2018 20:00:00 12,6 10,7 12,0 16,3 20,8 19,2 9 5 18 10 SE 1020,3 54 0 3,0
21.09.2018 19:00:00 13,2 11,4 12,8 17,7 21,0 19,2 13 7 36 19 NE 1018,6 3,3 0 1,2
21.09.2018 18:00:00 18,3 11,5 18,6 21,0 21,1 19,2 24 13 57 31 NNW 1015,3 56 0 0,0
21.09.2018 17:00:00 24,1 8,7 23,6 22,0 21,1 19,2 29 16 56 30 SW 1012,5 64 0 0,0
21.09.2018 16:00:00 24,4 10,9 24,1 22,7 20,9 19,2 29 16 44 24 WSW 1012,0 43 0 0,0
21.09.2018 15:00:00 24,8 12,6 24,9 22,8 20,8 19,2 25 13 42 23 SW 1011,8 39 0 0,0
21.09.2018 14:00:00 24,8 13,9 25,1 23,7 20,5 19,2 21 11 39 21 SW 1012,0 38 0 0,0
21.09.2018 13:00:00 25,2 13,3 25,6 24,5 20,0 19,2 24 13 44 24 WSW 1011,6 38 0 0,0
21.09.2018 12:00:00 25,8 12,7 27,0 25,5 19,5 19,2 27 15 50 27 SW 1012,1 27 47 0,0
21.09.2018 11:00:00 26,1 13,2 29,3 22,6 19,2 19,2 18 10 29 16 SW 1012,4 35 16 0,0
21.09.2018 10:00:00 24,7 12,7 23,8 19,8 19,0 19,2 22 12 34 18 SW 1011,9 43 32 0,0
21.09.2018 09:00:00 20,9 15,1 23,2 17,5 19,1 19,2 3 2 6 3 SSW 1012,0 22 59 0,0
21.09.2018 08:00:00 13,8 12,4 12,6 14,9 19,4 19,2 2 1 4 2 S 1013,0 14 0 0,0
21.09.2018 07:00:00 13,4 11,9 10,5 14,9 19,7 19,2 0 0 5 3 N 1013,1 17 0 0,0
21.09.2018 06:00:00 13,9 11,9 11,0 15,3 20,1 19,2 2 1 12 7 N 1013,3 17 0 0,0
21.09.2018 05:00:00 14,5 12,0 11,6 15,8 20,4 19,2 4 2 6 3 S 1013,8 20 0 0,0
21.09.2018 04:00:00 16,0 12,4 13,3 16,5 20,8 19,2 5 3 10 5 N 1013,8 22 0 0,0
21.09.2018 03:00:00 15,4 12,6 13,1 16,8 21,2 19,2 3 2 10 5 ESE 1014,0 27 0 0,0
21.09.2018 02:00:00 14,6 12,3 12,9 17,4 21,6 19,2 4 2 6 3 N 1014,8 24 0 0,0
21.09.2018 01:00:00 15,6 12,8 13,3 18,0 22,0 19,2 3 2 9 5 NW 1015,0 27 0 0,0
21.09.2018 00:00:00 16,1 12,9 13,9 18,8 22,4 19,2 0 0 9 5 N 1015,2 30 0 0,0
20.09.2018 23:00:00 18,7 13,4 15,3 19,9 22,8 19,2 4 2 18 10 WSW 1015,3 35 0 0,0
20.09.2018 22:00:00 23,1 12,3 20,6 20,8 23,2 19,2 10 5 19 10 SE 1015,2 39 0 0,0
20.09.2018 21:00:00 23,6 12,6 21,1 21,6 23,6 19,2 12 6 16 9 SSE 1015,4 44 0 0,0
20.09.2018 20:00:00 21,2 13,2 17,3 23,4 23,9 19,2 2 1 5 3 S 1015,6 39 0 0,0
20.09.2018 19:00:00 26,8 12,1 26,0 26,5 23,9 19,1 4 2 11 6 SW 1015,0 44 46 0,0
20.09.2018 18:00:00 28,8 10,7 30,4 29,6 23,6 19,1 8 5 17 9 SW 1015,3 45 60 0,0
20.09.2018 17:00:00 29,1 10,2 32,3 31,5 23,1 19,1 10 5 19 10 WSW 1015,9 12 60 0,0

tt = temperature
td = dewpoint
tt 5cm = temperature 5cm
tt -5cm = temperature -5cm
tt -20cm = temperature -20cm
tt -100cm = temperature -100cm
ff = wind speed
fx = gusts
dd = wind direction
ppp = reduced air pressure
vv = visibility
sd = sunshine duration
rr = precipitation

Next stations